Other Surface Observations
Issued by NWS Tucson, AZ

Home | Current Version | Previous Version | Text Only | Print | Product List | Glossary On
Versions: 1 2 3 4 5 6 7 8 9 10 11 12 13 14 15 16 17 18 19 20 21 22 23 24 25 26 27 28 29 30 31 32 33 34 35 36 37 38 39 40 41 42 43 44 45 46 47 48 49 50
000
SXUS55 KTWC 022216
OSOTWC

WEATHER ROUNDUP FOR SOUTHEAST ARIZONA
NATIONAL WEATHER SERVICE TUCSON AZ
315 PM MST WED SEP 02 2015

AZZ504>506-514-022315-
LOCATION       SKY/WX    TMP DP  RH WIND       PRES   REMARKS
TUCSON         MOSUNNY   89  59  36 E18G26    29.98F
DAVIS-MONTHAN  MOSUNNY   88  63  42 E21G28    29.96F
CHILDRENS PARK N/A      N/A N/A  26 N0                PIMA CO DEQ
ALVERNON/22ND  N/A       95 N/A N/A W4                PIMA CO DEQ
CHERRY/GLENN   N/A      N/A N/A N/A N/A               PIMA CO DEQ
TANGERINE      N/A       94 N/A N/A W5                PIMA CO DEQ
CONTL RANCH    N/A       96  56  26 NW5               PIMA CO DEQ
GRANT/1ST      N/A       62  49  62 N2                PIMA CO DEQ
CRAYCROFT/22ND N/A       94  55  27 N/A               PIMA CO DEQ
GOLFLINKS/KOLB N/A      N/A N/A N/A N/A               PIMA CO DEQ
AJO/12TH       N/A       94  58  30 N/A               PIMA CO DEQ
SAGUARO EAST   N/A       33   6  32 W3                PIMA CO DEQ
FAIRGROUNDS    N/A       90 N/A N/A N/A               PIMA CO DEQ
SAGUARO        N/A       97  53  23 W3G11             *SABINO CYN
SAN CARLOS     N/A       94  65  39 N3G10             *SAN CARLOS
GREEN VALLEY   N/A       92  54  28 SW5               PIMA CO DEQ
HORSE CAMP CYN N/A       88  52  29 SW10G19           *ARAVAIPA CYN
RINCON MTNS    N/A       58  55  90 CALM              *NR MANNING CAMP
$$

AZZ509>511-022315-
LOCATION       SKY/WX    TMP DP  RH WIND       PRES   REMARKS
SAFFORD        PTSUNNY   87  60  40 W13       29.98F
STRAY HORSE    N/A       66  38  36 NW10G24           *
TRAIL CABIN    N/A       77  50  39 SW5G13            *N OF GRANVILLE
BLACK HILLS    N/A       87  58  37 SW3               *N OF FT THOMAS
DRY LAKE       N/A       73  55  54 W4G10             *NATANES MTNS
NOON CREEK     N/A       81  59  47 NE6G11            *PINALENO MTNS
COLUMBINE      N/A       61  47  59 S4                *PINALENO MTNS
GUTHRIE        N/A       80  52  38 SW14G23           *SW OF GUTHRIE
$$

AZZ502-503-513-022315-
LOCATION       SKY/WX    TMP DP  RH WIND       PRES   REMARKS
NOGALES        MOSUNNY   88  54  31 CALM      30.05F
SELLS          N/A       99  51  20 SW8G20            *
SASABE         N/A       94  54  26 SW8G16            *ALTAR VLY
HOPKINS        N/A       75  52  44 SE3               *SANTA RITA MTNS
CARR CYN       N/A       83  55  38 W5G12             *W OF HEREFORD
$$

AZZ507-508-512-022315-
LOCATION       SKY/WX    TMP DP  RH WIND       PRES   REMARKS
SIERRA VISTA   TSTM      67  63  84 NW13G21   30.12F
DOUGLAS        MOSUNNY   89  56  32 W10G16    30.05F
EMPIRE MTNS    N/A       75  60  59 NE5G19            *LAS CIENEGAS NCA
MULESHOE RANCH N/A       78  57  48 NW5G14            *PRESERVE
HEADQUARTERS   N/A       67  58  74 N3G22             *CHIRICAHUA MTNS
$$

.............................NOTES.............................
THIS IS AN AUTOMATED COLLECTIVE WITH MINIMAL QUALITY CONTROL.
PIMA CO DEQ SITES HAVE NONSTANDARD WIND SENSOR HEIGHTS.
PIMA CO DEQ SITES DO NOT REPORT WIND GUSTS.
* INDICATES WIND SENSORS LOCATED AT 20 FEET INSTEAD OF 33 FEET.
..............................KEY..............................
SKY/WX - SKY CONDITION/WEATHER
TMP    - TEMPERATURE IN FAHRENHEIT
DP     - DEWPOINT IN FAHRENHEIT
RH     - RELATIVE HUMIDITY IN PERCENT
WIND   - DIRECTION AND SPEED IN MILES PER HOUR (MPH)
VRB    - VARIABLE WIND DIRECTION
PRES   - MEAN SEA LEVEL PRESSURE IN INCHES OF MERCURY
         F - FALLING PRESSURE   R - RISING PRESSURE
         S - STEADY PRESSURE
VSB    - VISIBILITY IN MILES
HX     - HEAT INDEX IN FAHRENHEIT
WCI    - WIND CHILL INDEX IN FAHRENHEIT
N/A    - NOT AVAILABLE
AFB    - AIR FORCE BASE
         DAVIS-MONTHAN IS DAVIS-MONTHAN AIR FORCE BASE
CYN    - CANYON
MTNS   - MOUNTAINS
NCA    - NATIONAL CONSERVATION AREA
NR     - NEAR
VLY    - VALLEY
CONTL  - CONTINENTAL
PIMA CO DEQ - PIMA COUNTY DEPT OF ENVIRONMENTAL QUALITY



USA.gov is the U.S. government's official web portal to all federal, state and local government web resources and services.